User: anonymous   Login
Location: Unspecified
(0.0000°N, 0.0000°E)
Time: 08:22:37
(UTC+00:00)
Language:

deb DMSP - Orbit

View from above orbital plane
View from above orbital plane
View from above satellite
View from above satellite

Ground track
Ground track

The orbit data is extracted from the following two-line orbital elements,

1 24756U 97012B   18265.48873934 +.00015755 +00000-0 +74864-3 0  9996
2 24756 098.8240 092.6642 0004059 288.0404 124.0615 15.19330948135865
Epoch (UTC): 22 September 2018 11:43:47
Eccentricity: 0.0004059
inclination: 98.8240°
perigee height: 505 km
apogee height: 510 km
right ascension of ascending node: 92.6642°
argument of perigee: 288.0404°
revolutions per day: 15.19330948
mean anomaly at epoch: 124.0615°
orbit number at epoch: 13586

The dashed part of the orbit path shows where the satellite is in the earth's shadow,  

DLR